[[{"header":{"parameterUnit":"m.s-1","parameterCategory":1,"la1":30.2991,"la2":30.254,"lo1":-89.0895,"lo2":-89.0444,"dy":0.0017,"dx":0.0017,"nx":28,"ny":28,"refTime":"2024-07-16T09:00:00:Z","depth":0,"parameterNumber":2,"parameterNumberName":"U-component_of_WINDS"},"data":[0,0,0,0,0,0,0,0,0,0,0,0,0,0,0,0,0,0,0,0,0,0,0,0,0,0,0,0,0,0,0,0,0,0,0,0,0,0,0,0,0,0,0,0,0,0,0,0,0,0,0,0,0,0,0,0,0,0,1.6245,1.6246,0,1.6294,1.6294,1.6295,1.6345,1.6345,1.6346,1.6347,1.6396,1.6396,1.6397,0,0,0,0,0,0,0,0,0,0,0,0,0,1.6195,1.6196,1.6245,1.6246,1.6246,1.6294,1.6294,1.6295,1.6345,1.6345,1.6346,1.6347,1.6395,1.6396,1.6397,0,0,0,0,0,0,0,0,0,0,0,0,0,1.6227,1.6196,1.6245,1.6277,1.628,1.6293,1.6294,1.6295,1.6344,1.6345,1.6346,1.6347,1.6395,1.6396,1.6397,1.6383,0,0,1.64,1.6401,0,0,0,0,0,0,0,0,1.6226,1.6229,1.6271,1.6275,1.6278,1.6314,1.6295,1.6324,1.6344,1.632,1.6347,1.6348,1.6368,1.6371,1.6378,1.6385,1.6387,1.64,1.6401,1.6401,1.6402,0,0,0,0,0,0,0,1.6223,1.6227,1.6264,1.6272,1.6276,1.6289,1.6294,1.6301,1.6337,1.6322,1.6326,1.6331,1.637,1.6377,1.6379,1.6388,1.64,1.6401,1.6402,1.6402,1.6387,1.6386,0,0,0,0,0,0,1.6216,1.6225,1.6263,1.6266,1.6254,1.6289,1.6295,1.6302,1.6338,1.6344,1.633,1.6333,1.6375,1.6378,1.6381,1.6368,1.6401,1.6402,1.6403,1.6388,1.6387,1.6386,0,0,0,0,0,0,1.6215,1.6219,1.6261,1.6247,1.6253,1.6288,1.6295,1.6302,1.6309,1.6344,1.635,1.633,1.6375,1.638,1.6382,1.637,1.6403,1.6404,1.6389,1.6388,1.6386,1.6339,0,0,0,0,0,0,1.6213,1.6218,1.6213,1.6246,1.6253,1.6261,1.6295,1.6302,1.6311,1.6315,1.6346,1.6352,1.6377,1.6381,1.6383,1.6372,1.6404,1.639,1.6388,1.6387,1.6342,1.6336,1.6331,0,0,0,0,0,1.6211,1.6198,1.6213,1.6217,1.6248,1.626,1.6264,1.6293,1.631,1.6305,1.6327,1.6351,1.6371,1.638,1.6384,1.6373,1.6391,1.6389,1.6387,1.6344,1.6338,1.6332,0,0,0,0,0,0,1.6162,1.6203,1.622,1.6216,1.6234,1.6268,1.6263,1.6285,1.6299,1.6302,1.6338,1.6344,1.6343,1.6358,1.6368,1.6361,1.6384,1.6383,1.6351,1.6345,1.634,1.6336,1.6405,0,0,0,0,0,1.6151,1.6157,1.6192,1.6186,1.6194,1.6227,1.6233,1.6255,1.6275,1.6282,1.6305,1.6323,1.6334,1.634,1.6352,1.6345,1.6352,1.6339,1.6333,1.6329,1.6327,1.6325,1.632,1.6378,1.6378,1.6378,0,0,1.6127,1.615,1.6152,1.6177,1.6193,1.62,1.6233,1.6238,1.6243,1.6283,1.6287,1.6304,1.6327,1.6325,1.6325,1.6338,1.6313,1.6326,1.6322,1.6323,1.6322,1.6317,1.6312,1.6377,1.6377,1.6377,0,0,1.6088,1.6106,1.6103,1.6119,1.6144,1.6166,1.6165,1.6196,1.6209,1.6214,1.6244,1.6251,1.6268,1.6284,1.6294,1.6262,1.6284,1.6264,1.6237,1.6234,1.623,1.6226,1.6215,1.621,1.6262,1.6262,1.6262,0,1.6056,1.6067,1.6099,1.6102,1.6112,1.6149,1.6147,1.6161,1.6188,1.6194,1.6208,1.6231,1.6249,1.6251,1.6244,1.625,1.6251,1.6261,1.6228,1.6224,1.6221,1.6211,1.6207,1.626,1.626,1.626,1.6261,0,1.6026,1.6033,1.6028,1.6054,1.6063,1.6063,1.6096,1.6101,1.6122,1.6142,1.6147,1.617,1.6188,1.619,1.6209,1.6195,1.6202,1.6221,1.6246,1.6212,1.6204,1.62,1.6256,1.6257,1.6258,1.6258,0,0,1.5956,1.6001,1.5998,1.6011,1.6042,1.6048,1.605,1.6067,1.6072,1.609,1.6093,1.6107,1.6125,1.6137,1.6159,1.6157,1.613,1.6176,1.6177,1.6167,1.6117,1.6102,1.6097,1.6146,1.6145,1.6144,1.6115,0,1.5923,1.5929,1.5959,1.5957,1.5964,1.6,1.6002,1.6021,1.604,1.6049,1.6071,1.6081,1.6104,1.6111,1.6111,1.6133,1.6121,1.6136,1.6149,1.6149,1.6142,1.6093,1.6077,1.6048,1.6112,1.6111,1.6111,0,1.5884,1.59,1.5899,1.5931,1.5935,1.5936,1.5955,1.5963,1.5986,1.6,1.6013,1.6038,1.6043,1.6065,1.6073,1.6082,1.6089,1.6101,1.6101,1.6104,1.6128,1.6094,1.604,1.6035,1.6106,1.6106,1.6106,0,1.5834,1.5856,1.5858,1.5868,1.5904,1.5904,1.5919,1.5943,1.5952,1.5968,1.5975,1.5991,1.6,1.6012,1.6041,1.6055,1.6045,1.607,1.6058,1.6057,1.6054,1.6054,1.6,1.6058,1.6058,1.6058,1.6058,0,1.5794,1.5792,1.5836,1.5837,1.5837,1.587,1.5868,1.5887,1.5908,1.5914,1.5945,1.595,1.5988,1.5997,1.6019,1.6022,1.6026,1.6038,1.6044,1.6035,1.6034,1.604,1.6043,1.6057,1.6057,1.6058,1.6058,0,1.5738,1.5767,1.5772,1.5807,1.5815,1.5813,1.5843,1.5846,1.5867,1.5874,1.5878,1.5912,1.5924,1.5954,1.5974,1.599,1.5987,1.5998,1.5979,1.5983,1.5969,1.597,1.5918,1.5914,1.5974,1.5973,1.5972,0,1.571,1.571,1.5744,1.5751,1.5765,1.5775,1.5784,1.5817,1.5826,1.5852,1.5852,1.5867,1.5881,1.5899,1.5926,1.5942,1.5953,1.5934,1.5956,1.5948,1.5954,1.5954,1.5954,1.5929,1.5928,1.5928,1.5927,0,1.5658,1.5673,1.5686,1.5704,1.5714,1.573,1.5747,1.5751,1.5788,1.5796,1.581,1.582,1.5842,1.5856,1.5877,1.5892,1.5916,1.592,1.5918,1.5909,1.5899,1.5905,1.5967,1.5921,1.5922,1.5922,1.5923,1.5923,1.5616,1.5618,1.5643,1.5656,1.5673,1.5688,1.5693,1.5715,1.5727,1.5747,1.5766,1.5778,1.5801,1.5831,1.5845,1.5855,1.5867,1.5864,1.5863,1.5862,1.5859,1.5897,1.5859,1.5859,1.5859,1.5859,1.5859,0,1.5566,1.5584,1.5596,1.562,1.563,1.5652,1.5673,1.568,1.569,1.571,1.5723,1.5739,1.5754,1.5782,1.5799,1.5801,1.5813,1.5805,1.5805,1.5808,1.5847,1.5847,1.5795,1.5795,1.5795,1.5795,1.5795,1.5795,1.5542,1.5546,1.5564,1.5576,1.5594,1.5606,1.5616,1.5631,1.5647,1.5664,1.5676,1.5694,1.5718,1.5737,1.5752,1.576,1.5765,1.5753,1.5765,1.58,1.5806,1.5811,1.5812,1.5754,1.5754,1.5726,1.5726,1.5725]},{"header":{"parameterUnit":"m.s-1","parameterCategory":1,"la1":30.2991,"la2":30.254,"lo1":-89.0895,"lo2":-89.0444,"dy":0.0017,"dx":0.0017,"nx":28,"ny":28,"refTime":"2024-07-16T09:00:00:Z","depth":0,"parameterNumber":3,"parameterNumberName":"V-component_of_WINDS"},"data":[0,0,0,0,0,0,0,0,0,0,0,0,0,0,0,0,0,0,0,0,0,0,0,0,0,0,0,0,0,0,0,0,0,0,0,0,0,0,0,0,0,0,0,0,0,0,0,0,0,0,0,0,0,0,0,0,0,0,1.7492,1.7492,0,1.7461,1.7461,1.746,1.7435,1.7435,1.7435,1.7435,1.7402,1.7402,1.7401,0,0,0,0,0,0,0,0,0,0,0,0,0,1.7531,1.753,1.7492,1.7492,1.7492,1.7461,1.7461,1.746,1.7435,1.7435,1.7435,1.7435,1.7402,1.7402,1.7401,0,0,0,0,0,0,0,0,0,0,0,0,0,1.7508,1.753,1.7492,1.7476,1.7474,1.7461,1.7461,1.746,1.7435,1.7435,1.7435,1.7434,1.7403,1.7402,1.7401,1.7402,0,0,1.7398,1.7398,0,0,0,0,0,0,0,0,1.751,1.7507,1.7478,1.7477,1.7475,1.7452,1.7462,1.7441,1.7436,1.745,1.7435,1.7434,1.7419,1.7417,1.7412,1.7401,1.74,1.7398,1.7397,1.7397,1.7397,0,0,0,0,0,0,0,1.7511,1.7508,1.748,1.7478,1.7476,1.747,1.7466,1.7458,1.7437,1.7449,1.7447,1.7443,1.7418,1.7413,1.7411,1.7399,1.7398,1.7397,1.7396,1.7396,1.7389,1.7389,0,0,0,0,0,0,1.7516,1.751,1.7481,1.7479,1.7492,1.7469,1.7465,1.7459,1.7437,1.7433,1.7444,1.7442,1.7414,1.7412,1.7409,1.741,1.7397,1.7396,1.7395,1.7388,1.7389,1.7389,0,0,0,0,0,0,1.7516,1.7513,1.7482,1.7494,1.7489,1.7469,1.7463,1.7459,1.7454,1.7433,1.7429,1.7442,1.7414,1.7411,1.7405,1.7409,1.7396,1.7395,1.7388,1.7389,1.7389,1.7412,0,0,0,0,0,0,1.7518,1.7514,1.7514,1.7494,1.7489,1.7478,1.7463,1.7459,1.7452,1.745,1.7431,1.7427,1.7413,1.7406,1.7404,1.7407,1.7394,1.7388,1.7388,1.7389,1.741,1.7413,1.7415,0,0,0,0,0,1.7519,1.7521,1.7514,1.7511,1.7489,1.7478,1.7475,1.7459,1.7453,1.7453,1.744,1.7428,1.7409,1.7406,1.7403,1.7406,1.7387,1.7388,1.7389,1.7409,1.7412,1.7415,0,0,0,0,0,0,1.7542,1.7518,1.751,1.7506,1.7494,1.7474,1.7474,1.7463,1.7453,1.7451,1.7432,1.7428,1.7424,1.7414,1.7411,1.7407,1.7396,1.7397,1.7413,1.7416,1.7418,1.742,1.7393,0,0,0,0,0,1.7546,1.754,1.7519,1.7518,1.7512,1.7494,1.7489,1.7478,1.7465,1.746,1.7446,1.7434,1.7425,1.742,1.7411,1.7409,1.7405,1.741,1.7412,1.7414,1.7415,1.7414,1.7416,1.7392,1.7392,1.7392,0,0,1.7556,1.7542,1.7539,1.7522,1.7512,1.7505,1.749,1.7484,1.7479,1.7459,1.7452,1.7442,1.7427,1.7423,1.7421,1.7415,1.742,1.7415,1.7417,1.7416,1.7415,1.7417,1.7419,1.7393,1.7393,1.7392,0,0,1.7569,1.7558,1.7556,1.7546,1.7531,1.7519,1.7518,1.75,1.7492,1.7485,1.747,1.7464,1.7449,1.744,1.7433,1.7444,1.7433,1.7442,1.7454,1.7453,1.7455,1.7456,1.7461,1.7462,1.7442,1.7442,1.7442,0,1.7583,1.7572,1.7556,1.7551,1.7544,1.7526,1.7523,1.7515,1.7497,1.7493,1.7487,1.7469,1.7457,1.7451,1.7454,1.7449,1.7448,1.7444,1.7456,1.7457,1.7458,1.7462,1.7464,1.7443,1.7443,1.7443,1.7443,0,1.759,1.7583,1.7583,1.7567,1.756,1.7556,1.7539,1.7535,1.7524,1.7513,1.7507,1.7493,1.7481,1.7479,1.7468,1.7471,1.7468,1.7459,1.7449,1.7462,1.7466,1.7467,1.7445,1.7445,1.7444,1.7444,0,0,1.7616,1.7592,1.7592,1.7585,1.7567,1.7561,1.7557,1.7546,1.7542,1.7531,1.7527,1.7516,1.7507,1.75,1.7488,1.7488,1.7498,1.7479,1.7478,1.7483,1.7501,1.7508,1.751,1.7491,1.7491,1.7491,1.7503,0,1.7627,1.7618,1.7604,1.76,1.7594,1.7577,1.7573,1.7562,1.7552,1.7545,1.7533,1.7526,1.7515,1.7511,1.7509,1.7497,1.7501,1.7496,1.7487,1.7487,1.7492,1.7512,1.7519,1.7531,1.7504,1.7504,1.7504,0,1.7638,1.7629,1.7624,1.7608,1.7605,1.7602,1.759,1.7584,1.7571,1.7564,1.7556,1.7544,1.7539,1.7529,1.7522,1.7519,1.7515,1.7508,1.7508,1.7507,1.7497,1.7512,1.7534,1.7536,1.7506,1.7506,1.7506,0,1.7658,1.7644,1.764,1.7634,1.7615,1.7613,1.7605,1.7592,1.7586,1.7577,1.7573,1.7563,1.7557,1.755,1.7535,1.7529,1.753,1.7519,1.7524,1.7525,1.7525,1.7525,1.7548,1.7522,1.7522,1.7522,1.7522,0,1.7672,1.767,1.7649,1.7646,1.7644,1.7627,1.7625,1.7616,1.7604,1.76,1.7585,1.7581,1.7562,1.7556,1.7544,1.7541,1.7538,1.7533,1.753,1.7534,1.7535,1.7531,1.753,1.7522,1.7522,1.7522,1.7522,0,1.7694,1.768,1.7674,1.7656,1.7652,1.7651,1.7636,1.7633,1.7622,1.7617,1.7614,1.7597,1.7589,1.7574,1.7562,1.7555,1.7554,1.7548,1.7558,1.7556,1.7563,1.7562,1.7583,1.7586,1.7558,1.7559,1.7559,0,1.7704,1.7702,1.7684,1.7681,1.7673,1.7667,1.7661,1.7645,1.764,1.7626,1.7625,1.7616,1.7608,1.7597,1.7583,1.7574,1.7569,1.7577,1.7567,1.7572,1.7569,1.757,1.757,1.7579,1.7579,1.7579,1.758,0,1.7723,1.7716,1.7709,1.7699,1.7693,1.7684,1.7675,1.7673,1.7654,1.7649,1.7642,1.7636,1.7624,1.7615,1.7605,1.7596,1.7585,1.7583,1.7584,1.7588,1.7594,1.7592,1.7564,1.7582,1.7582,1.7582,1.7582,1.7582,1.7739,1.7737,1.7725,1.7717,1.7709,1.7701,1.7697,1.7686,1.7679,1.7669,1.766,1.7653,1.7641,1.7625,1.7618,1.7613,1.7607,1.7608,1.7608,1.7609,1.7611,1.7595,1.761,1.761,1.761,1.761,1.761,0,1.7758,1.7749,1.7742,1.773,1.7725,1.7715,1.7704,1.77,1.7695,1.7685,1.7677,1.7669,1.7661,1.7647,1.7638,1.7637,1.7632,1.7635,1.7635,1.7634,1.7616,1.7617,1.7639,1.7639,1.7639,1.7639,1.7639,1.7639,1.7767,1.7763,1.7755,1.7747,1.7739,1.7732,1.7727,1.772,1.7712,1.7703,1.7697,1.7688,1.7677,1.7667,1.7659,1.7656,1.7653,1.7659,1.7653,1.7637,1.7635,1.7632,1.7632,1.7658,1.7658,1.7671,1.7671,1.7671]}]]